Retour au catalogue

COSMOS 1275 DEB

ActifPO
NORAD 42140·DEBRIS·🇷🇺 Russia

Lancé Jun 4, 1981 depuis Plesetsk Cosmodrome

Loading…

Prochains Passages (prochaines 24 heures)

TLE

VieillissantSource: Space-Track

Époque: Sep 7, 2026, 17:41 UTC

1 42140U 81053RC  26250.73690570  .00000494  00000-0  66788-3 0  9995
2 42140  83.1339  66.4766 0198277 333.2029  25.8974 13.50237730596669

Suivez COSMOS 1275 DEB en temps réel avec AllMySat

Download on the App Store